sat.trackr.live / text

‹ back to catalog

STARLINK-35920

NORAD 66623 · 2025-271G

PAYLOAD ACTIVE UNKNOWN

§ Identity

Operator
Country
US
Launch date
2025-11-23
Launch site
AFWTR
Launch vehicle
Mass (kg)
RCS (m²)

Purposes: comms

External: N2YO · Heavens-Above · Gunter

§ Orbital elements

Epoch: 2026-05-25T04:51:37.416096Z

Period
93.85 min
Inclination
53.1585°
Eccentricity
0.0001105
Mean motion
15.34414682 rev/d
Perigee alt
461.9 km
Apogee alt
463.4 km
Semi-major
6,840.8 km
B*
1.0812e-3
RAAN
142.9468°
Arg perigee
102.1544°
Mean anomaly
257.9582°
Rev number
2,930

§ Raw data

STARLINK-359201 66623U 25271G   26145.20251639  .00036346  00000+0  10812-2 0  99912 66623  53.1585 142.9468 0001105 102.1544 257.9582 15.34414682 29300

JSON: /api/v1/satellites/66623 · /tle

For live sub-satellite position, see the globe view (requires WebGL).

§ Visibility from observer

Set your observer location to see the next 7 days of passes ≥ 10°. The values pass through the URL so the page stays shareable.

No JS? Fill the form by hand. The geolocation button needs JavaScript.